Location: Rotheul
(50.2849°N, 11.2349°E)
Time: 19:41:23
(UTC+01:00)

ISS - Visible Passes

Search period start: 18 February 2019 00:00
Search period end: 28 February 2019 00:00
Orbit: 403 x 411 km, 51.6° (Epoch: 19 February)

Date Brightness Start Highest point End Pass type
(mag) Time Alt. Az. Time Alt. Az. Time Alt. Az.
23 Feb -1.0 06:34:19 10° S 06:36:37 18° SE 06:38:56 10° E visible
24 Feb -0.7 05:44:17 10° SSE 05:45:21 11° SE 05:46:25 10° ESE visible
25 Feb -2.2 06:26:52 10° SW 06:29:50 33° SSE 06:32:50 10° E visible
26 Feb -1.6 05:35:53 10° SSW 05:38:28 22° SE 05:41:03 10° E visible
27 Feb -1.2 04:46:29 13° SSE 04:47:08 14° SE 04:48:55 10° ESE visible
27 Feb -3.3 06:19:55 10° SW 06:23:08 58° SSE 06:26:22 10° ENE visible
